Temp
26 25 26 27 25 27 28 25 24 25 25 23 21 21 21 21 20 21 21 20 20 19 20 19 19 19 19 19 18 17 18 19 20 20 19 18 18 19 19 18 17 16 19 17
25 27 27 28 26 28 27 26 26 24 25 23 22 21 21 21 21 22 22 20 20 19 18 19 19 19 18 18 19 19 19 20 19 19 19 18 19 19 18 18 18 18 19 18
27 29 29 31 30 29 29 27 26 25 24 23 23 22 20 21 21 22 22 21 20 19 19 18 18 18 18 19 20 20 19 19 19 19 20 20 19 19 19 19 17 18 17 17
28 29 31 30 31 29 29 28 28 24 23 23 24 21 20 20 20 21 20 21 20 20 19 19 18 18 18 18 20 20 20 20 20 20 19 18 18 17 18 18 18 17 17 17
30 31 31 31 31 30 29 28 26 25 23 23 23 20 20 20 21 20 20 20 20 19 18 18 18 18 18 18 19 19 19 20 19 19 18 18 17 17 17 17 17 17 17 17
28 28 30 31 29 28 28 27 23 20 21 22 22 21 20 20 21 21 21 21 20 19 18 18 19 19 19 20 21 20 20 19 18 18 18 18 17 18 17 17 17 17 16 16
26 28 28 30 29 27 25 23 22 24 21 22 22 21 20 21 22 21 20 20 20 19 17 16 16 17 19 20 20 20 19 19 19 18 18 18 17 17 17 16 16 16 16 17
25 26 27 28 30 28 25 23 22 26 22 22 21 21 21 22 21 21 21 20 20 18 16 16 17 17 18 19 19 19 18 18 18 17 17 17 16 16 16 16 16 16 17 17
26 27 27 28 27 28 27 24 23 20 20 21 19 22 23 22 21 20 20 20 18 17 17 16 18 18 19 20 19 18 17 17 17 16 16 16 15 15 15 15 15 16 16 16
25 27 27 27 27 26 27 24 24 19 23 24 20 20 19 21 21 20 19 18 18 18 17 17 18 19 20 19 18 18 18 17 16 16 15 14 14 14 14 14 14 14 15 15
24 24 27 26 25 25 23 23 19 18 19 20 20 19 19 18 19 17 17 17 17 17 16 18 19 19 19 18 18 17 17 16 15 15 14 13 12 11 11 11 11 11 12 12
22 20 23 26 25 24 25 25 20 20 23 16 17 18 16 16 16 16 16 17 17 17 18 18 18 17 17 17 17 15 15 15 14 13 13 11 10 10 10 10 10 9 10 10
23 18 20 23 23 23 22 22 19 17 16 19 19 18 17 17 16 16 17 17 16 16 16 15 16 15 16 16 15 15 14 13 13 12 10 9 9 9 9 8 7 7 6 6
19 16 19 20 23 21 22 20 20 20 19 17 18 18 17 17 17 17 16 16 15 15 15 15 14 15 15 14 15 14 13 12 11 10 9 9 8 7 7 6 6 6 6 6
19 20 21 20 21 20 20 19 18 19 19 20 18 18 17 17 18 17 16 15 15 15 15 14 14 13 14 14 14 13 12 11 10 8 9 9 8 7 7 6 6 6 6 6
16 18 21 20 20 20 19 19 19 19 18 17 17 17 17 17 17 17 15 15 15 14 14 14 13 12 13 13 13 12 11 10 8 8 9 9 9 7 6 6 6 6 6 5
17 16 17 21 19 21 19 19 18 18 17 18 18 17 18 18 16 16 16 14 13 13 13 12 12 12 13 13 13 11 9 8 8 8 8 7 7 7 6 4 4 4 3 4
17 15 15 18 19 20 19 19 19 18 18 17 18 18 17 16 15 14 15 15 13 12 12 11 12 13 13 13 12 10 9 7 7 7 7 7 7 6 5 4 4 4 3 3
16 15 15 17 16 19 19 19 19 20 18 18 17 17 16 15 14 15 14 12 12 12 12 12 13 13 13 12 11 9 8 7 7 6 5 6 6 6 6 4 4 3 3 3
18 15 17 16 20 19 19 20 18 18 17 17 17 15 15 13 13 12 11 11 12 13 13 12 12 12 12 11 10 9 8 7 6 5 5 5 5 5 5 5 4 3 3 3
17 15 17 15 18 18 18 17 17 19 17 15 15 14 14 13 12 11 11 11 12 12 12 11 12 11 11 11 10 9 7 6 6 7 6 6 5 5 4 4 4 3 3 3
19 17 16 15 18 20 16 17 19 15 15 15 14 12 12 10 10 10 10 10 10 10 11 11 11 10 11 10 9 8 7 7 7 7 6 5 4 4 4 4 4 4 4 4
19 17 17 16 16 15 15 15 15 13 14 13 13 10 10 10 9 9 9 9 9 10 10 10 10 10 10 10 9 8 7 7 7 7 6 4 4 4 4 4 4 4 5 4
18 15 14 15 15 15 15 14 14 13 12 11 11 10 9 9 8 8 8 8 9 10 10 9 10 9 9 9 9 8 7 8 7 6 5 4 4 4 5 5 5 4 4 3
16 16 13 13 15 15 15 14 12 11 11 10 10 9 9 8 8 8 8 9 9 9 8 9 9 9 9 9 9 8 8 8 6 6 5 5 4 5 5 5 4 4 4 4
14 14 15 15 13 13 13 12 12 11 10 9 9 8 8 8 7 9 9 8 8 8 8 8 9 9 9 9 9 8 8 8 7 6 6 5 5 5 5 5 6 5 5 4
Height
768 786 792 780 780 777 781 794 803 798 792 803 817 815 813 810 808 804 800 797 795 799 801 798 795 791 786 778 774 774 775 777 776 771 770 770 767 762 757 757 760 758 759 753
780 787 771 768 773 775 783 796 801 803 793 804 815 818 811 809 809 806 804 798 790 796 797 796 798 797 790 784 782 780 778 778 777 775 773 771 768 764 759 757 756 751 754 750
782 771 760 762 770 777 782 792 795 804 801 803 807 822 824 813 808 804 804 806 791 791 799 799 800 804 793 787 786 785 784 783 782 780 778 776 772 767 763 757 752 751 749 748
775 762 762 769 771 774 786 774 780 801 810 833 809 850 830 823 818 809 807 806 791 793 801 802 803 803 797 794 792 790 790 787 785 783 781 779 776 772 767 762 757 752 746 745
775 768 768 773 771 766 779 772 786 796 811 819 826 844 836 826 822 816 807 800 798 797 801 803 806 805 801 798 795 791 791 789 788 785 783 781 778 775 770 764 759 753 749 745
773 761 761 762 764 766 767 780 799 813 820 844 833 839 844 835 823 819 810 807 805 804 807 809 810 804 800 797 793 793 793 792 791 788 785 781 777 772 766 760 756 753 749 744
783 774 764 757 773 769 779 804 839 836 851 849 830 840 841 823 817 816 814 811 810 812 813 814 812 805 802 799 797 797 796 794 790 788 785 781 776 771 766 760 754 748 744 740
809 810 779 767 771 783 792 804 836 836 853 847 832 846 840 818 813 811 812 813 815 818 819 815 810 809 806 803 801 799 797 794 791 788 784 780 776 771 765 759 751 745 741 736
805 800 774 771 772 776 789 813 804 837 843 848 854 834 823 818 819 818 819 820 823 822 819 817 815 813 809 806 803 800 797 794 791 788 783 778 773 768 764 757 751 745 738 733
793 805 782 778 771 776 782 794 818 836 847 846 854 848 851 833 827 825 826 828 826 823 823 822 819 816 812 809 805 801 797 793 790 786 782 778 773 768 761 754 748 741 735 731
792 802 796 787 799 805 805 810 826 835 846 857 863 856 838 839 833 836 835 831 830 829 827 823 819 816 812 810 805 801 798 795 791 786 781 776 770 764 757 751 745 739 732 728
798 815 820 804 793 794 796 805 821 842 837 858 858 860 842 842 841 839 838 834 831 829 826 822 819 816 813 808 803 802 800 796 791 786 781 776 770 763 755 749 744 737 732 728
796 831 839 822 811 804 817 815 824 833 842 849 854 858 841 841 841 839 837 835 832 829 826 823 817 814 809 806 805 804 800 795 790 786 782 776 768 762 754 750 745 740 736 734
800 832 835 846 828 824 828 828 822 826 843 850 851 850 847 845 843 840 838 836 833 829 825 821 817 814 811 807 804 802 798 793 789 785 782 777 771 765 760 756 752 747 743 741
807 830 824 828 823 826 834 835 832 835 837 841 847 848 846 841 839 837 836 833 831 830 826 822 818 814 811 809 807 802 798 794 790 787 783 781 777 770 765 762 759 756 751 748
818 837 826 836 830 829 838 837 837 840 844 848 849 849 841 838 835 836 836 834 833 831 826 823 820 817 813 810 807 805 801 797 794 791 789 784 779 776 772 769 765 761 758 755
824 836 843 839 837 832 849 846 845 846 846 845 849 846 839 839 839 837 835 836 835 832 830 827 823 819 815 812 807 804 804 800 798 795 791 786 782 779 777 775 772 768 765 762
826 839 849 849 840 856 848 838 838 845 845 845 844 842 841 841 839 837 835 836 835 833 830 828 824 820 816 813 809 806 804 801 800 797 794 789 786 783 782 780 778 775 772 769
821 837 853 855 866 850 845 841 842 842 847 844 845 845 844 843 841 838 837 836 835 834 831 828 825 820 817 812 809 807 805 804 801 798 796 792 789 788 787 786 784 781 778 776
821 830 840 853 850 861 846 835 836 836 857 845 846 848 848 846 851 847 841 837 834 831 828 826 823 820 817 813 810 808 807 806 804 802 800 796 794 792 791 790 788 786 784 782
842 847 851 861 855 853 842 841 836 853 862 849 848 849 848 850 852 847 842 837 834 831 829 827 824 821 818 814 811 810 809 809 808 806 803 800 798 796 795 794 793 791 789 787
839 851 856 861 856 852 845 841 843 853 849 849 850 852 852 852 848 846 842 838 835 831 828 826 823 820 816 813 810 811 812 812 811 809 806 803 801 799 798 797 797 796 794 791
841 842 848 853 855 849 847 847 848 849 851 852 853 855 854 852 851 848 843 839 835 831 829 827 825 821 818 813 810 813 815 814 813 812 810 809 807 805 803 802 802 800 797 794
834 837 850 853 853 849 848 850 849 851 853 855 856 856 855 854 850 847 844 840 836 832 830 828 825 822 819 817 816 817 817 817 816 815 815 814 813 812 810 808 807 804 802 799
838 837 851 856 851 849 850 850 853 854 856 857 857 857 855 853 851 849 845 840 837 833 831 829 826 823 821 819 820 821 821 820 820 820 819 819 818 817 816 814 811 809 807 805
837 841 846 847 843 847 851 853 854 856 858 858 858 857 856 855 853 849 845 842 840 836 833 830 827 823 822 823 823 824 824 823 823 823 823 823 822 821 820 818 816 814 812 809
Wind_Speed
1 5 2 5 5 2 3 5 9 2 3 10 4 6 7 4 5 7 9 13 15 13 12 16 17 21 26 35 39 37 39 35 32 31 21 9 3 14 22 27 32 29 31 27
5 1 5 3 4 3 3 7 4 6 3 7 4 8 5 6 3 1 5 8 16 9 8 14 16 15 23 33 38 40 39 36 33 29 24 16 13 15 16 15 17 21 24 30
3 4 3 1 3 3 3 5 5 7 3 5 1 5 7 5 6 5 2 2 11 14 7 5 9 10 23 33 34 34 32 30 29 26 22 19 15 14 15 18 17 13 18 25
2 4 2 2 2 4 2 5 5 14 5 4 2 2 6 5 7 7 7 3 10 11 5 3 8 12 21 25 26 27 27 27 26 24 20 14 11 10 13 15 16 16 16 20
2 2 1 2 2 2 3 5 6 4 4 5 5 5 5 5 4 6 10 10 9 8 7 9 11 13 14 19 22 24 24 23 21 22 20 19 14 13 18 20 19 17 15 16
4 4 2 1 3 3 4 5 7 5 3 4 3 4 4 3 3 3 5 4 5 7 8 8 13 17 18 22 27 26 25 24 22 22 23 20 16 18 20 20 21 19 19 20
6 4 6 3 6 6 8 7 4 5 5 3 4 4 5 3 0 3 5 4 2 5 6 7 8 15 20 24 25 24 23 26 24 20 21 21 19 18 19 22 22 23 21 22
3 6 7 9 2 5 4 5 5 2 1 2 5 2 2 3 7 6 4 3 4 6 5 6 12 17 20 21 22 21 19 22 22 21 23 23 21 22 24 23 23 20 21 23
3 3 4 5 4 2 2 5 4 6 3 3 2 1 3 4 4 3 5 5 5 4 6 8 14 14 19 24 23 21 20 20 22 23 24 24 24 24 24 25 25 23 20 24
2 2 2 5 3 6 5 4 4 4 2 1 3 1 3 5 3 4 4 4 4 6 7 6 9 13 15 17 19 18 18 21 25 26 25 24 24 26 27 27 26 26 24 21
2 3 4 3 5 3 6 4 6 5 3 4 2 3 4 3 2 4 5 5 5 5 6 6 10 16 17 17 17 15 17 23 28 30 31 34 35 34 30 26 28 28 25 21
2 4 2 1 1 2 2 2 4 5 3 2 3 3 5 5 6 6 5 5 5 5 6 7 12 16 17 15 15 15 20 23 25 27 29 31 33 34 28 26 23 21 16 15
2 4 3 6 6 6 6 5 4 4 3 2 4 3 4 6 7 5 4 5 6 7 7 7 13 15 19 20 16 17 20 23 26 27 27 30 30 31 25 21 23 23 23 23
6 4 4 5 2 2 4 7 4 3 3 4 2 4 2 3 2 4 5 5 6 6 7 7 9 17 19 12 12 18 21 22 24 25 22 25 26 25 25 23 24 25 26 26
4 4 2 4 6 7 5 7 10 5 1 3 5 3 1 3 2 3 4 7 7 8 9 8 8 13 19 16 19 18 20 24 23 23 22 24 20 20 25 26 26 26 27 26
4 1 2 6 7 8 8 7 7 6 6 5 5 1 3 5 4 5 6 7 8 8 9 10 11 14 13 16 21 22 23 24 22 20 21 20 20 18 20 23 25 28 27 27
4 4 3 0 3 2 6 5 3 3 3 3 2 4 3 4 6 6 6 6 6 7 7 7 8 10 14 15 13 13 18 18 18 18 20 22 21 17 17 18 23 26 26 26
5 4 2 2 3 2 3 2 3 5 1 2 1 2 3 5 6 8 2 4 6 6 6 7 14 16 18 18 16 13 16 16 15 17 19 22 20 19 15 20 23 25 24 25
4 5 4 4 3 1 2 3 1 1 1 1 2 4 5 6 5 5 6 5 4 4 7 9 14 15 18 22 14 10 13 13 15 19 19 20 18 16 14 20 20 19 21 23
5 6 4 2 3 3 2 2 5 3 3 3 3 5 5 5 5 4 8 7 9 15 12 15 18 20 19 22 14 10 12 13 16 18 17 19 17 16 17 17 20 19 19 19
4 4 4 2 2 2 3 8 5 3 4 4 4 4 5 4 2 6 8 11 17 18 12 16 22 22 21 18 9 7 10 13 14 18 20 20 15 16 14 16 20 20 20 20
3 3 1 2 3 2 5 3 3 3 1 2 4 5 6 5 7 8 9 11 16 16 11 17 21 23 20 22 5 8 11 10 14 18 22 22 19 16 15 14 16 19 19 20
2 4 4 3 4 2 3 4 2 3 3 4 4 5 5 6 5 8 8 10 15 16 12 16 17 17 19 18 9 12 9 10 13 18 23 23 22 23 22 23 20 21 22 22
2 2 4 3 2 3 4 4 4 4 5 4 5 4 5 5 6 8 9 13 15 16 14 17 15 15 16 9 11 11 10 11 12 18 21 23 24 23 23 22 20 21 23 19
3 3 5 2 1 4 3 3 5 6 6 5 6 5 5 5 8 8 9 14 17 15 14 14 13 13 15 8 11 9 9 8 13 14 17 19 20 20 19 19 19 20 21 21
2 6 4 4 7 5 3 5 4 6 4 5 5 6 10 9 7 12 13 15 16 16 14 13 15 16 10 11 11 9 6 4 8 11 13 15 15 13 12 13 14 14 16 18
Wind_Direction
51 76 234 224 197 210 101 89 111 130 143 65 52 66 28 30 37 64 78 86 67 51 25 27 29 42 55 58 63 63 65 64 63 56 55 68 38 330 313 286 276 288 281 277
27 2 235 214 162 117 118 113 87 53 20 90 149 49 339 24 15 129 88 103 97 79 38 21 20 32 53 60 61 61 61 56 54 54 46 39 23 5 351 329 305 297 262 269
130 255 323 124 79 127 118 124 190 131 109 26 165 35 6 338 352 32 242 320 81 80 40 14 5 19 61 64 63 62 60 59 55 51 47 40 29 10 0 352 337 317 287 275
222 291 28 360 93 122 89 174 167 142 118 172 52 235 343 351 328 357 13 119 57 74 51 18 7 21 50 65 69 65 59 56 50 42 40 35 16 346 336 328 322 315 305 288
280 330 325 34 354 194 186 89 131 122 92 107 17 77 276 352 341 344 2 10 27 28 20 3 350 6 33 45 47 52 47 43 41 39 30 19 6 345 334 326 319 315 316 314
260 296 273 285 87 49 122 88 55 56 81 46 312 116 281 256 284 338 318 353 353 2 1 6 3 23 26 30 31 27 25 22 19 20 18 16 5 350 339 334 323 315 311 315
341 339 318 38 45 8 60 53 3 19 21 198 317 56 247 323 147 240 231 255 327 1 2 344 325 4 14 16 13 8 8 9 5 2 0 360 356 351 347 337 324 314 310 312
59 358 2 334 95 171 59 125 139 181 190 240 356 64 266 271 304 239 199 147 54 15 327 338 359 3 5 5 7 2 356 356 2 6 4 5 1 351 344 344 338 319 308 309
116 15 338 51 357 68 156 55 160 105 25 80 279 338 340 349 38 79 107 83 44 1 6 2 355 351 358 360 358 359 0 3 10 8 4 359 354 351 347 338 336 333 320 315
168 113 9 298 41 25 105 146 52 16 85 351 328 115 252 339 11 38 63 85 26 23 10 341 339 345 344 349 349 353 358 4 5 3 5 3 1 352 345 337 335 332 322 318
61 78 297 35 30 333 4 25 49 107 110 157 186 260 359 321 42 66 53 54 36 12 347 318 323 333 334 342 348 347 3 7 4 3 3 2 359 352 347 343 343 335 327 325
353 128 80 127 360 267 39 109 111 111 223 69 133 256 350 76 85 83 52 20 352 327 305 317 319 322 340 334 335 7 7 5 6 5 5 7 2 355 348 344 351 354 0 13
183 22 45 354 355 9 44 348 81 95 95 167 138 239 40 49 49 32 23 338 320 306 318 313 325 335 342 346 3 7 10 7 8 8 10 9 3 359 10 27 34 39 42 47
85 81 135 169 207 203 20 350 357 97 94 165 195 140 13 32 31 339 329 307 307 320 321 323 334 333 344 358 20 14 10 12 9 17 13 9 13 31 42 46 51 57 57 55
86 81 61 42 83 82 94 49 36 70 30 97 165 108 305 240 262 317 331 349 346 342 339 327 323 339 357 13 10 7 10 9 17 21 15 13 28 46 63 61 62 60 58 56
23 124 7 45 63 74 71 39 57 53 55 67 83 32 236 267 289 320 337 345 342 331 324 337 342 351 14 9 3 5 9 11 20 17 9 10 19 50 55 62 65 63 56 52
72 118 82 94 318 269 32 357 42 75 36 158 264 238 323 313 311 299 310 334 314 324 343 349 348 360 357 355 4 8 15 21 24 21 13 19 27 47 57 59 58 53 51 52
113 88 76 146 26 56 275 10 80 117 86 58 67 272 303 296 297 294 296 299 321 349 351 346 349 353 1 358 359 19 19 34 31 25 18 22 33 40 60 60 57 53 50 52
60 118 64 105 74 189 192 260 311 315 282 253 282 321 313 320 322 306 33 352 356 343 316 319 338 345 359 7 7 31 33 42 39 29 19 28 38 53 69 58 49 47 54 59
48 71 103 79 102 173 255 314 348 128 322 358 360 330 324 343 350 281 338 348 352 340 341 358 358 358 358 360 4 32 58 54 39 33 35 45 56 65 66 71 52 56 58 58
14 9 79 73 114 277 331 307 310 52 262 350 5 333 337 343 274 282 330 344 336 329 337 1 358 351 354 359 4 55 76 57 55 53 51 53 59 63 77 69 52 60 62 60
136 119 122 75 75 8 0 337 67 210 16 30 5 13 356 356 341 346 332 328 333 330 344 351 348 351 360 358 7 94 84 73 73 62 57 53 53 60 70 75 66 61 53 50
36 171 170 152 208 219 328 101 84 144 93 12 47 13 11 343 339 317 317 326 328 329 337 345 348 351 358 9 95 107 100 91 82 71 64 63 63 71 74 72 65 57 51 43
23 121 93 103 259 128 98 59 59 66 90 64 50 10 350 341 328 335 335 330 331 344 349 343 350 349 354 36 93 103 110 102 90 78 73 78 76 71 69 63 55 43 37 30
199 82 125 58 99 85 70 90 125 84 72 58 31 10 6 360 346 330 332 344 348 344 344 350 348 345 2 99 103 109 109 106 92 88 83 83 82 75 70 59 50 49 42 34
188 166 154 219 186 136 143 121 104 93 63 47 34 5 7 6 340 348 353 355 357 3 359 354 359 358 60 108 105 105 100 92 103 107 95 87 81 74 67 52 49 41 38 36